Regional Weather Roundup
Issued by NWS Albany, NY

Home | Current Version | Previous Version | Text Only | Print | Product List | Glossary On
Versions: 1 2 3 4 5 6 7 8 9 10 11 12 13 14 15 16 17 18 19 20 21 22 23 24 25 26 27 28 29 30 31 32 33 34 35 36 37 38 39 40 41 42 43 44 45 46 47 48 49 50
821
ASUS41 KALY 280410
RWRALY

NEW YORK STATE HOURLY WEATHER ROUNDUP
NATIONAL WEATHER SERVICE ALBANY NY
1200 AM EDT THU JUL 28 2016

NOTE: "FAIR" INDICATES FEW OR NO CLOUDS BELOW 12,000 FEET WITH NO
SIGNIFICANT WEATHER AND/OR NO OBSTRUCTIONS TO VISIBILITY.

NYZ032-033-038>043-046>054-057>066-NYZ062>081-082-084-280500-
EAST


CITY           SKY/WX    TMP DP  RH WIND       PRES   REMARKS
ALBANY         PTCLDY    72  61  68 CALM      29.90S
GLENS FALLS    CLEAR     69  63  81 S3        29.88F
POUGHKEEPSIE   CLEAR     70  64  81 CALM      29.90R
NEWBURGH       CLEAR     72  64  78 CALM      29.93F
MONTGOMERY     CLEAR     65  63  93 SW3       29.92S
WHITE PLAINS   CLEAR     71  66  84 CALM      29.92S
ISLIP          PTCLDY    76  72  87 S5        29.91F
NEW YORK CITY  MOCLDY    81  70  69 S7        29.90S
CENTRAL PARK   CLEAR     80  68  66 CALM      29.93S
$$

NYZ005>009-017-018-044>046-055-056-280500-
CENTRAL


CITY           SKY/WX    TMP DP  RH WIND       PRES   REMARKS
FULTON         CLOUDY    72  66  81 CALM      29.90S
SYRACUSE       PTCLDY    75  64  68 W5        29.90R
ROME           PTCLDY    68  64  87 CALM      29.91S
ELMIRA         CLEAR     66  59  78 CALM      29.94S
BINGHAMTON     CLEAR     73  57  57 S3        29.97F
MONTICELLO     CLEAR     64  63  94 CALM      29.99S
$$

NYZ026>034-041>043-087-280500-
NORTH


CITY           SKY/WX    TMP DP  RH WIND       PRES   REMARKS
WATERTOWN      PTCLDY    71  63  75 SW6       29.88S
FORT DRUM      NOT AVBL
MASSENA        CLOUDY    73  61  65 SW7       29.86R
SARANAC LAKE   CLOUDY    62  56  80 SW3       29.92F
PLATTSBURGH    CLOUDY    73  60  63 CALM      29.84F
$$

NYZ001>004-010>016-019>021-085-280500-
WEST


CITY           SKY/WX    TMP DP  RH WIND       PRES   REMARKS
NIAGARA FALLS  CLOUDY    76  65  68 SW9       29.92S
BUFFALO        PTCLDY    75  68  78 SW10      29.94R
DUNKIRK        CLEAR     69  60  73 CALM      29.95R
JAMESTOWN      CLEAR     70  59  68 SW5       30.01R
WELLSVILLE     CLEAR     69  59  70 CALM      30.03S
ROCHESTER      CLEAR     73  62  68 NW5       29.93R
PENN YAN       CLEAR     72  62  71 S5        29.94F
$$

             KEY
       WCI = WIND CHILL INDEX
       VSB = VISIBILITY
       HX  = HEAT INDEX
$$




USA.gov is the U.S. government's official web portal to all federal, state and local government web resources and services.